Regional Weather Roundup
Issued by NWS Albany, NY

Home | Current Version | Previous Version | Graphics & Text | Print | Product List | Glossary Off
Versions: 1 2 3 4 5 6 7 8 9 10 11 12 13 14 15 16 17 18 19 20 21 22 23 24 25 26 27 28

000
ASUS41 KALY 270710
RWRALY

NEW YORK STATE HOURLY WEATHER ROUNDUP
NATIONAL WEATHER SERVICE ALBANY NY
300 AM EDT SAT MAY 27 2017

NOTE: "FAIR" INDICATES FEW OR NO CLOUDS BELOW 12,000 FEET WITH NO
SIGNIFICANT WEATHER AND/OR NO OBSTRUCTIONS TO VISIBILITY.

NYZ032-033-038>043-046>054-057>066-NYZ062>081-082-084-270800-
EAST


CITY           SKY/WX    TMP DP  RH WIND       PRES   REMARKS
ALBANY         DRIZZLE   54  51  90 NE3       29.83S
GLENS FALLS    NOT AVBL
POUGHKEEPSIE   PTCLDY    52  51  97 CALM      29.80S
NEWBURGH       PTCLDY    55  54  94 W12       29.83S
MONTGOMERY     CLEAR     56  52  86 W5        29.81F
WHITE PLAINS   CLEAR     56  51  84 NW6       29.81S
ISLIP          CLEAR     57  55  93 CALM      29.81R
NEW YORK CITY  CLEAR     63  53  70 W10       29.81S
CENTRAL PARK   CLEAR     61  53  75 NW6       29.84F
$$

NYZ005>009-017-018-044>046-055-056-270800-
CENTRAL


CITY           SKY/WX    TMP DP  RH WIND       PRES   REMARKS
FULTON         LGT RAIN  56  54  93 CALM      29.86R FOG
SYRACUSE       DRIZZLE   56  56 100 W3        29.85R FOG
ROME           CLOUDY    54  53  97 CALM      29.87R
ELMIRA         CLOUDY    59  52  77 SW7       29.87R
BINGHAMTON     CLOUDY    53  53 100 NW6       29.86S
MONTICELLO     PTCLDY    52  50  93 W5        29.86S
$$

NYZ026>034-041>043-087-270800-
NORTH


CITY           SKY/WX    TMP DP  RH WIND       PRES   REMARKS
WATERTOWN      CLOUDY    54  53  97 E3        29.86R
FORT DRUM      NOT AVBL
OGDENSBURG     CLOUDY    51  51  98 CALM      29.88R
MASSENA        CLOUDY    49  49 100 CALM      29.88R FOG
SARANAC LAKE   MOCLDY    42  42 100 CALM      29.85R FOG
PLATTSBURGH    PTCLDY    50  47  89 W6        29.84R
$$

NYZ001>004-010>016-019>021-085-270800-
WEST


CITY           SKY/WX    TMP DP  RH WIND       PRES   REMARKS
NIAGARA FALLS  CLOUDY    58  54  86 S5        29.88S
BUFFALO        CLOUDY    54  52  93 SW8       29.89S
DUNKIRK        CLOUDY    55  53  93 SW5       29.91R
JAMESTOWN      MOCLDY    52  48  87 CALM      29.91F
WELLSVILLE     CLOUDY    54  50  86 W9        29.92R
ROCHESTER      CLOUDY    58  55  90 W7        29.88R
PENN YAN       CLOUDY    58  52  80 SW5       29.88R
$$

             KEY
       WCI = WIND CHILL INDEX
       VSB = VISIBILITY
       HX  = HEAT INDEX
$$




USA.gov is the U.S. government's official web portal to all federal, state and local government web resources and services.